Location: Unspecified
(0.0000°N, 0.0000°E)
Time: 23:40:32
(UTC+01:00)

Iridium 15 - Visible Passes

Search period start: 19 December 2014 00:00
Search period end: 29 December 2014 00:00
Orbit: 776 x 779 km, 86.4° (Epoch: 19 December)

Date Brightness Start Highest point End Pass type
(mag) Time Alt. Az. Time Alt. Az. Time Alt. Az.
20 Dec 8.7 21:44:38 10° S 21:44:40 10° S 21:44:40 10° S visible
21 Dec 8.5 21:11:33 10° SSE 21:11:39 11° SSE 21:11:39 11° SSE visible
22 Dec 9.0 22:19:08 10° SW 22:19:09 10° SW 22:19:09 10° SW visible
23 Dec 8.3 21:44:47 10° SSW 21:46:10 18° SSW 21:46:10 18° SSW visible
24 Dec 7.7 21:11:15 10° S 21:13:14 23° SSE 21:13:14 23° SSE visible
25 Dec 7.7 20:38:30 10° SSE 20:40:19 19° SE 20:40:19 19° SE visible
25 Dec 9.0 22:20:22 10° SW 22:20:49 11° WSW 22:20:49 11° WSW visible
26 Dec 8.1 20:07:14 10° ESE 20:07:26 10° ESE 20:07:26 10° ESE visible
26 Dec 7.9 21:45:13 10° SSW 21:47:57 26° SW 21:47:57 26° SW visible
27 Dec 6.6 21:11:14 10° S 21:15:06 51° SSW 21:15:06 51° SSW visible
28 Dec 6.4 20:37:59 10° SSE 20:42:18 44° ESE 20:42:18 44° ESE visible
